Flag for Sweden Weather past 2 weeks in Örebro, Sweden

Now
34 °F

Light rain. Low clouds.


Feels Like: 29 °F
Forecast: 28 / 35 °F
Wind: 6 mph from Southwest

Location: Orebro Private

Current Time: Jan 26, 2015 at 7:41:45 PM

Latest Report: Jan 26, 2015 at 7:20 PM


Visibility: 3 mi

Pressure: 29.65 "Hg

Humidity: 100%

Dew point: 34 °F

Location of ÖrebroLocation

Historic Weather in Örebro — Graph

°F

Örebro temperature yesterday

Maximum temperature yesterday: 34 °F (at 12:20 AM)
Minimum temperature yesterday: 27 °F (at 3:50 PM)
Average temperature yesterday: 32 °F

Past Weeks' High & Low Weather Summary

 TemperatureHumidityPressure
High43 °F (Jan 12, 6:50 PM)100% (Jan 12, 3:50 AM)30.18 "Hg (Jan 12, 3:50 AM)
Low9 °F (Jan 23, 8:20 AM)75% (Jan 13, 2:20 AM)28.94 "Hg (Jan 12, 6:20 PM)
Average32 °F92%29.72 "Hg
* Reported Jan 11 6:20 PM — Jan 26 6:50 PM, Örebro, Weather by CustomWeather, © 2014

Note: Actual official high and low records may vary slightly from our data, if they occured in-between our weather recording intervals... More about our weather records

Advertising

Örebro weather history for previous 24 hours

 ConditionsComfort  
Time TempWeatherWind HumidityBarometerVisibility
6:50 PM
Jan 26
34 °FSnow. Low clouds.7 mph100%29.65 "Hg4 mi
6:20 PM34 °FLight snow. Low clouds.6 mph100%29.65 "Hg4 mi
5:50 PM36 °FLight snow. Low clouds.8 mph93%29.65 "Hg4 mi
5:20 PM34 °FLight snow. Low clouds.6 mph100%29.65 "Hg6 mi
4:50 PM34 °FLight snow. Mostly cloudy.7 mph100%29.68 "Hg6 mi
4:20 PM36 °FDrizzle. Mostly cloudy.8 mph93%29.68 "HgN/A
3:50 PM36 °FDrizzle. Low clouds.8 mph93%29.68 "Hg3 mi
3:20 PM36 °FDrizzle. Low clouds.9 mph93%29.68 "Hg2 mi
2:50 PM34 °FDrizzle. Low clouds.9 mph100%29.71 "Hg2 mi
2:20 PM36 °FDrizzle. Low clouds.10 mph93%29.71 "Hg2 mi
1:50 PM36 °FDrizzle. Low clouds.12 mph93%29.74 "Hg3 mi
1:20 PM34 °FDrizzle. Partly sunny.10 mph100%29.74 "Hg3 mi
12:50 PM34 °FDrizzle. Partly sunny.10 mph100%29.77 "Hg5 mi
12:20 PM34 °FDrizzle. Partly sunny.10 mph100%29.77 "HgN/A
11:50 AM34 °FDrizzle. Partly sunny.12 mph100%29.80 "Hg4 mi
11:20 AM34 °FSnow. Partly sunny.10 mph100%29.83 "Hg1 mi
10:50 AM34 °FSnow. Partly sunny.10 mph100%29.83 "Hg1 mi
10:20 AM34 °FSnow. Partly sunny.13 mph100%29.83 "Hg2 mi
9:50 AM34 °FLight snow. Partly sunny.14 mph100%29.86 "Hg3 mi
9:20 AM34 °FLight snow. Low clouds.12 mph100%29.86 "Hg5 mi
8:50 AM32 °FLight snow. Low clouds.9 mph100%29.89 "HgN/A
8:20 AM28 °FLight snow. Low clouds.5 mph100%29.89 "HgN/A
7:50 AM28 °FLight snow. Passing clouds.5 mph93%29.89 "HgN/A
7:20 AM27 °FPassing clouds.3 mph93%29.92 "HgN/A
6:50 AM27 °FPassing clouds.3 mph100%29.92 "HgN/A
6:20 AM27 °FPassing clouds.2 mph93%29.95 "HgN/A
5:50 AM25 °FPassing clouds.5 mph100%29.95 "HgN/A
5:20 AM25 °FPartly cloudy.5 mph100%29.98 "HgN/A
4:50 AM25 °FPassing clouds.6 mph100%29.98 "HgN/A
4:20 AM23 °FPartly cloudy.5 mph100%30.01 "HgN/A
3:50 AM25 °FPassing clouds.6 mph93%30.01 "HgN/A
3:20 AM27 °FLow clouds.6 mph93%30.01 "HgN/A
2:50 AM27 °FPassing clouds.9 mph93%30.04 "HgN/A
2:20 AM28 °FLow clouds.9 mph93%30.04 "HgN/A
1:50 AM28 °FLow clouds.9 mph93%30.07 "HgN/A
1:20 AM28 °FLow clouds.9 mph93%30.07 "HgN/A
12:50 AM28 °FLow clouds.12 mph93%30.07 "HgN/A
12:20 AM28 °FLow clouds.10 mph93%30.07 "HgN/A
11:50 PM
Jan 25
28 °FLow clouds.9 mph93%30.09 "HgN/A
11:20 PM28 °FLow clouds.10 mph93%30.09 "HgN/A
10:20 PM28 °FLow clouds.10 mph93%30.09 "HgN/A
9:50 PM30 °FLow clouds.10 mph93%30.12 "HgN/A
9:20 PM30 °FLow clouds.9 mph86%30.12 "HgN/A
8:50 PM30 °FLow clouds.8 mph93%30.12 "HgN/A
8:20 PM30 °FLow clouds.8 mph93%30.12 "HgN/A
7:50 PM30 °FLow clouds.7 mph93%30.12 "HgN/A
7:20 PM30 °FLow clouds.6 mph86%30.12 "HgN/A
Weather by CustomWeather, © 2014

See weather overviewHow to use our weather pages